QFA453 YPAD-YSSY

Flight info

Callsign QFA453
Flight time N/A
Altitude 35000
Route BENDO3/05 BENDO V255 WG W113 ODALE ODALE7
Aircraft B738/M-SDE2E3FGHIRWXYZ/L

Departure

Time 2026-05-01 08:10
Airport Adelaide International Airport (YPAD)

Arrival

Time N/A
Airport Sydney Kingsford Smith International Airport (YSSY)
Time Latitude Longitude Altitude Speed Heading
2026-05-01 08:06 -34.95752 138.51651 29 ft 0 kts 154°
2026-05-01 08:07 -34.95799 138.51712 29 ft 15 kts 117°
2026-05-01 08:08 -34.95807 138.51732 29 ft 0 kts 117°
2026-05-01 08:08 -34.95811 138.51744 29 ft 3 kts 96°
2026-05-01 08:09 -34.95694 138.51945 29 ft 25 kts 50°
2026-05-01 08:09 -34.95446 138.52287 30 ft 90 kts 53°
2026-05-01 08:09 -34.94902 138.53056 80 ft 141 kts 41°
2026-05-01 08:10 -34.93744 138.55103 1123 ft 160 kts 54°
2026-05-01 08:10 -34.92657 138.57832 1760 ft 204 kts 58°
2026-05-01 08:11 -34.91389 138.61330 2752 ft 250 kts 64°
2026-05-01 08:11 -34.90920 138.65889 2558 ft 280 kts 106°
2026-05-01 08:12 -34.93597 138.68634 4156 ft 271 kts 152°
2026-05-01 08:12 -34.94766 138.69481 4524 ft 282 kts 141°
2026-05-01 08:12 -34.97375 138.72983 5623 ft 281 kts 121°
2026-05-01 08:13 -34.98465 138.74940 6170 ft 281 kts 119°
2026-05-01 08:13 -34.99516 138.76970 6724 ft 283 kts 118°
2026-05-01 08:13 -35.01712 138.81438 7842 ft 327 kts 118°
2026-05-01 08:14 -35.02879 138.83839 8390 ft 332 kts 118°
2026-05-01 08:14 -35.04058 138.86276 8939 ft 336 kts 118°
2026-05-01 08:14 -35.05236 138.88721 9484 ft 339 kts 118°
2026-05-01 08:14 -35.06335 138.91277 10033 ft 341 kts 110°
2026-05-01 08:15 -35.07173 138.93988 10588 ft 342 kts 107°
2026-05-01 08:15 -35.08819 138.99455 11686 ft 347 kts 107°
2026-05-01 08:15 -35.09666 139.02248 12242 ft 349 kts 107°
2026-05-01 08:16 -35.10511 139.05039 12794 ft 352 kts 107°
2026-05-01 08:16 -35.11357 139.07834 13343 ft 354 kts 107°
2026-05-01 08:16 -35.12213 139.10663 13895 ft 357 kts 107°
2026-05-01 08:16 -35.13079 139.13530 14449 ft 360 kts 107°
2026-05-01 08:17 -35.13946 139.16405 14999 ft 364 kts 107°
2026-05-01 08:17 -35.14816 139.19295 15545 ft 368 kts 107°
2026-05-01 08:17 -35.15709 139.22264 16101 ft 372 kts 107°
2026-05-01 08:17 -35.16600 139.25233 16650 ft 376 kts 107°
2026-05-01 08:18 -35.17490 139.28201 17194 ft 379 kts 107°
2026-05-01 08:18 -35.19320 139.34309 18299 ft 386 kts 107°
2026-05-01 08:19 -35.21175 139.40518 19401 ft 394 kts 107°
2026-05-01 08:19 -35.22116 139.43677 19952 ft 398 kts 107°
2026-05-01 08:19 -35.23065 139.46898 20508 ft 402 kts 106°
2026-05-01 08:19 -35.23890 139.50119 21051 ft 404 kts 102°
2026-05-01 08:20 -35.24400 139.53510 21603 ft 405 kts 92°
2026-05-01 08:20 -35.24578 139.56934 22156 ft 408 kts 89°
2026-05-01 08:20 -35.24735 139.60403 22706 ft 413 kts 90°
2026-05-01 08:20 -35.24919 139.63907 23255 ft 417 kts 91°
2026-05-01 08:21 -35.25104 139.67488 23811 ft 420 kts 90°
2026-05-01 08:21 -35.25286 139.71071 24363 ft 423 kts 90°
2026-05-01 08:21 -35.25465 139.74643 24911 ft 425 kts 90°
2026-05-01 08:21 -35.25643 139.78223 25457 ft 427 kts 89°
2026-05-01 08:22 -35.25821 139.81854 26008 ft 428 kts 89°
2026-05-01 08:22 -35.25997 139.85489 26559 ft 427 kts 89°
2026-05-01 08:22 -35.26170 139.89090 27105 ft 426 kts 89°
2026-05-01 08:22 -35.26344 139.92726 27659 ft 425 kts 89°
2026-05-01 08:23 -35.26515 139.96320 28208 ft 424 kts 89°
2026-05-01 08:23 -35.26683 139.99873 28754 ft 424 kts 89°
2026-05-01 08:23 -35.26852 140.03513 29310 ft 427 kts 89°
2026-05-01 08:23 -35.27019 140.07127 29859 ft 430 kts 89°
2026-05-01 08:24 -35.27188 140.10802 30412 ft 432 kts 89°
2026-05-01 08:24 -35.27355 140.14435 30956 ft 434 kts 89°
2026-05-01 08:24 -35.27523 140.18133 31508 ft 435 kts 89°
2026-05-01 08:24 -35.27688 140.21829 32059 ft 436 kts 89°
2026-05-01 08:25 -35.27852 140.25542 32611 ft 437 kts 89°
2026-05-01 08:25 -35.28013 140.29237 33159 ft 437 kts 90°
2026-05-01 08:25 -35.28173 140.32960 33712 ft 437 kts 90°
2026-05-01 08:25 -35.28334 140.36679 34265 ft 437 kts 90°
2026-05-01 08:26 -35.28492 140.40373 34815 ft 436 kts 90°
2026-05-01 08:26 -35.28647 140.44043 35089 ft 443 kts 90°
2026-05-01 08:26 -35.28804 140.47859 35085 ft 453 kts 90°
2026-05-01 08:27 -35.29127 140.55569 35073 ft 454 kts 90°
2026-05-01 08:27 -35.29449 140.63280 35074 ft 452 kts 90°
2026-05-01 08:28 -35.29759 140.70807 35075 ft 451 kts 89°
2026-05-01 08:28 -35.30072 140.78500 35086 ft 452 kts 89°
2026-05-01 08:29 -35.30378 140.86192 35098 ft 454 kts 89°
2026-05-01 08:29 -35.30680 140.93875 35097 ft 454 kts 89°
2026-05-01 08:30 -35.30976 141.01562 35098 ft 453 kts 89°
2026-05-01 08:30 -35.31269 141.09300 35098 ft 453 kts 89°
2026-05-01 08:31 -35.31554 141.16989 35098 ft 453 kts 89°
2026-05-01 08:31 -35.31837 141.24724 35098 ft 453 kts 89°
2026-05-01 08:32 -35.32116 141.32449 35115 ft 453 kts 89°
2026-05-01 08:32 -35.32386 141.40108 35115 ft 453 kts 89°
2026-05-01 08:33 -35.32654 141.47835 35115 ft 453 kts 89°
2026-05-01 08:33 -35.32916 141.55554 35115 ft 453 kts 89°
2026-05-01 08:34 -35.33173 141.63252 35115 ft 453 kts 89°
2026-05-01 08:34 -35.33427 141.70966 35114 ft 453 kts 89°
2026-05-01 08:35 -35.33677 141.78654 35124 ft 451 kts 89°
2026-05-01 08:35 -35.33923 141.86311 35130 ft 451 kts 89°
2026-05-01 08:36 -35.34164 141.93991 35130 ft 451 kts 89°
2026-05-01 08:36 -35.34396 142.01623 35130 ft 451 kts 89°
2026-05-01 08:37 -35.34625 142.09322 35130 ft 451 kts 89°
2026-05-01 08:37 -35.34846 142.16963 35130 ft 451 kts 89°
2026-05-01 08:38 -35.35064 142.24620 35130 ft 451 kts 89°
2026-05-01 08:38 -35.35275 142.32306 35146 ft 453 kts 89°
2026-05-01 08:39 -35.35484 142.40010 35146 ft 454 kts 89°
2026-05-01 08:39 -35.35690 142.47766 35146 ft 453 kts 89°
2026-05-01 08:40 -35.35985 142.59285 35146 ft 453 kts 89°
2026-05-01 08:40 -35.36177 142.67000 35146 ft 453 kts 89°
2026-05-01 08:41 -35.36366 142.74687 35146 ft 453 kts 89°
2026-05-01 08:41 -35.36550 142.82379 35160 ft 452 kts 89°
2026-05-01 08:42 -35.36728 142.90083 35159 ft 450 kts 88°
2026-05-01 08:42 -35.36898 142.97704 35159 ft 447 kts 88°
2026-05-01 08:43 -35.37060 143.05270 35160 ft 447 kts 88°
2026-05-01 08:43 -35.37220 143.12927 35160 ft 448 kts 88°
2026-05-01 08:44 -35.37376 143.20583 35160 ft 448 kts 88°
2026-05-01 08:44 -35.37525 143.28172 35168 ft 448 kts 88°
2026-05-01 08:45 -35.37672 143.35832 35177 ft 449 kts 88°
2026-05-01 08:45 -35.37815 143.43468 35177 ft 449 kts 88°
2026-05-01 08:46 -35.37952 143.51091 35177 ft 449 kts 88°
2026-05-01 08:46 -35.37918 143.58693 35177 ft 447 kts 84°
2026-05-01 08:47 -35.37558 143.66292 35177 ft 447 kts 83°
2026-05-01 08:47 -35.37234 143.73889 35177 ft 446 kts 83°
2026-05-01 08:48 -35.36910 143.81503 35185 ft 446 kts 84°
2026-05-01 08:48 -35.36591 143.89055 35185 ft 446 kts 84°
2026-05-01 08:49 -35.36267 143.96655 35186 ft 446 kts 84°
2026-05-01 08:49 -35.35939 144.04233 35185 ft 446 kts 84°
2026-05-01 08:50 -35.35619 144.11537 35185 ft 446 kts 84°
2026-05-01 08:50 -35.35282 144.19106 35186 ft 446 kts 84°
2026-05-01 08:51 -35.34940 144.26706 35187 ft 446 kts 84°
2026-05-01 08:51 -35.34591 144.34338 35197 ft 447 kts 84°
2026-05-01 08:52 -35.34294 144.40790 35196 ft 447 kts 84°
2026-05-01 08:52 -35.33938 144.48401 35196 ft 447 kts 84°
2026-05-01 08:53 -35.33580 144.55966 35196 ft 447 kts 84°
2026-05-01 08:53 -35.33213 144.63591 35196 ft 447 kts 84°
2026-05-01 08:54 -35.32844 144.71199 35196 ft 446 kts 84°
2026-05-01 08:54 -35.32474 144.78732 35205 ft 445 kts 84°
2026-05-01 08:55 -35.32101 144.86282 35209 ft 445 kts 84°
2026-05-01 08:55 -35.31721 144.93857 35209 ft 445 kts 84°
2026-05-01 08:56 -35.31338 145.01370 35209 ft 445 kts 84°
2026-05-01 08:56 -35.30946 145.08942 35209 ft 445 kts 84°
2026-05-01 08:57 -35.30551 145.16470 35209 ft 445 kts 84°
2026-05-01 08:57 -35.30150 145.24033 35209 ft 445 kts 84°
2026-05-01 08:58 -35.29744 145.31589 35214 ft 444 kts 85°
2026-05-01 08:58 -35.29337 145.39098 35215 ft 445 kts 85°
2026-05-01 08:59 -35.28922 145.46684 35215 ft 445 kts 85°
2026-05-01 08:59 -35.28505 145.54195 35214 ft 445 kts 85°
2026-05-01 09:00 -35.28079 145.61791 35215 ft 445 kts 85°
2026-05-01 09:00 -35.27651 145.69336 35214 ft 445 kts 84°
2026-05-01 09:01 -35.27221 145.76851 35217 ft 445 kts 84°
2026-05-01 09:01 -35.26780 145.84445 35228 ft 447 kts 85°
2026-05-01 09:02 -35.26336 145.92032 35260 ft 449 kts 84°
2026-05-01 09:02 -35.25885 145.99638 35259 ft 448 kts 84°
2026-05-01 09:03 -35.25428 146.07222 35259 ft 446 kts 84°
2026-05-01 09:03 -35.24969 146.14752 35260 ft 445 kts 84°
2026-05-01 09:04 -35.24554 146.21483 35258 ft 447 kts 84°
2026-05-01 09:04 -35.24086 146.29048 35268 ft 447 kts 84°
2026-05-01 09:05 -35.23613 146.36610 35273 ft 447 kts 84°
2026-05-01 09:05 -35.23135 146.44215 35273 ft 447 kts 84°
2026-05-01 09:06 -35.22655 146.51755 35273 ft 447 kts 84°
2026-05-01 09:06 -35.22166 146.59345 35273 ft 447 kts 84°
2026-05-01 09:07 -35.21675 146.66911 35272 ft 447 kts 84°
2026-05-01 09:07 -35.21182 146.74469 35273 ft 447 kts 84°
2026-05-01 09:08 -35.20684 146.81999 35284 ft 445 kts 84°
2026-05-01 09:08 -35.20180 146.89578 35285 ft 446 kts 84°
2026-05-01 09:09 -35.19673 146.97115 35285 ft 446 kts 84°
2026-05-01 09:09 -35.19163 147.04601 35285 ft 446 kts 84°
2026-05-01 09:10 -35.18643 147.12180 35285 ft 446 kts 84°
2026-05-01 09:10 -35.18122 147.19693 35285 ft 446 kts 84°
2026-05-01 09:11 -35.17593 147.27245 35288 ft 446 kts 84°
2026-05-01 09:11 -35.17058 147.34798 35298 ft 448 kts 84°
2026-05-01 09:12 -35.16434 147.42372 35296 ft 448 kts 81°
2026-05-01 09:12 -35.14837 147.49683 35298 ft 445 kts 66°
2026-05-01 09:13 -35.12422 147.56601 35298 ft 445 kts 65°
2026-05-01 09:13 -35.10011 147.63577 35297 ft 445 kts 65°
2026-05-01 09:14 -35.07598 147.70525 35297 ft 445 kts 65°
2026-05-01 09:14 -35.05197 147.77414 35299 ft 444 kts 65°
2026-05-01 09:15 -35.02777 147.84337 35302 ft 444 kts 65°
2026-05-01 09:15 -35.00355 147.91249 35302 ft 444 kts 65°
2026-05-01 09:16 -34.97924 147.98164 35302 ft 444 kts 65°
2026-05-01 09:17 -34.94214 148.08519 35303 ft 444 kts 64°
2026-05-01 09:17 -34.90435 148.18794 35303 ft 444 kts 64°
2026-05-01 09:18 -34.86607 148.29185 33943 ft 451 kts 64°
2026-05-01 09:19 -34.84090 148.36024 32646 ft 441 kts 65°
2026-05-01 09:19 -34.82833 148.39435 31988 ft 436 kts 65°
2026-05-01 09:19 -34.81596 148.42783 31334 ft 431 kts 65°
2026-05-01 09:20 -34.79170 148.49339 30031 ft 422 kts 65°
2026-05-01 09:20 -34.76799 148.55736 28732 ft 413 kts 64°
2026-05-01 09:21 -34.74457 148.62041 27424 ft 404 kts 64°
2026-05-01 09:21 -34.73319 148.65099 26778 ft 401 kts 63°
2026-05-01 09:21 -34.71038 148.71214 25489 ft 392 kts 63°
2026-05-01 09:22 -34.68866 148.77037 25311 ft 372 kts 63°
2026-05-01 09:22 -34.66695 148.82826 25325 ft 379 kts 63°
2026-05-01 09:23 -34.65604 148.85741 25324 ft 378 kts 63°
2026-05-01 09:23 -34.63439 148.91510 25324 ft 376 kts 63°
2026-05-01 09:24 -34.61264 148.97298 25324 ft 376 kts 63°
2026-05-01 09:24 -34.60180 149.00177 25324 ft 376 kts 63°
2026-05-01 09:24 -34.58021 149.05904 25324 ft 376 kts 63°
2026-05-01 09:25 -34.55835 149.11693 25324 ft 376 kts 63°
2026-05-01 09:25 -34.53666 149.17427 25324 ft 376 kts 63°
2026-05-01 09:26 -34.52575 149.20308 25324 ft 376 kts 63°
2026-05-01 09:26 -34.50394 149.26057 25325 ft 376 kts 63°
2026-05-01 09:26 -34.49307 149.28922 25356 ft 374 kts 63°
2026-05-01 09:27 -34.47139 149.34625 25367 ft 373 kts 63°
2026-05-01 09:27 -34.46053 149.37477 25367 ft 372 kts 63°
2026-05-01 09:27 -34.44967 149.40330 25367 ft 372 kts 63°
2026-05-01 09:28 -34.43890 149.43153 25367 ft 372 kts 63°
2026-05-01 09:28 -34.42808 149.45989 25367 ft 372 kts 63°
2026-05-01 09:28 -34.41714 149.48854 25367 ft 372 kts 63°
2026-05-01 09:28 -34.40637 149.51669 25367 ft 372 kts 63°
2026-05-01 09:29 -34.38464 149.57342 25239 ft 375 kts 63°
2026-05-01 09:29 -34.37365 149.60208 24678 ft 374 kts 63°
2026-05-01 09:30 -34.35204 149.65840 23578 ft 371 kts 62°
2026-05-01 09:30 -34.34109 149.68684 23031 ft 374 kts 63°
2026-05-01 09:30 -34.31930 149.74344 21938 ft 373 kts 63°
2026-05-01 09:31 -34.30837 149.77182 21389 ft 373 kts 63°
2026-05-01 09:31 -34.29734 149.80039 20835 ft 373 kts 63°
2026-05-01 09:31 -34.27540 149.85718 19733 ft 373 kts 64°
2026-05-01 09:32 -34.26456 149.88521 19189 ft 373 kts 64°
2026-05-01 09:32 -34.24235 149.94255 18084 ft 379 kts 64°
2026-05-01 09:32 -34.23114 149.97147 17532 ft 380 kts 64°
2026-05-01 09:33 -34.21998 150.00024 16982 ft 380 kts 64°
2026-05-01 09:33 -34.20879 150.02908 16431 ft 380 kts 64°
2026-05-01 09:33 -34.18650 150.08668 15331 ft 380 kts 65°
2026-05-01 09:34 -34.17591 150.11618 14776 ft 380 kts 66°
2026-05-01 09:34 -34.16848 150.14638 14221 ft 382 kts 81°
2026-05-01 09:34 -34.17501 150.21022 13273 ft 387 kts 103°
2026-05-01 09:35 -34.18165 150.24179 12866 ft 388 kts 102°
2026-05-01 09:35 -34.19446 150.30502 12066 ft 389 kts 102°
2026-05-01 09:35 -34.20073 150.33635 11673 ft 389 kts 102°
2026-05-01 09:36 -34.20708 150.36797 11257 ft 374 kts 103°
2026-05-01 09:36 -34.21305 150.39735 10847 ft 347 kts 103°
2026-05-01 09:36 -34.21857 150.42423 10475 ft 316 kts 103°
2026-05-01 09:36 -34.22365 150.44862 10377 ft 289 kts 103°
2026-05-01 09:37 -34.22822 150.47255 10164 ft 295 kts 97°
2026-05-01 09:37 -34.23150 150.52210 9447 ft 293 kts 93°
2026-05-01 09:37 -34.23300 150.54656 8993 ft 289 kts 93°
2026-05-01 09:38 -34.23594 150.59438 8445 ft 282 kts 93°
2026-05-01 09:38 -34.23741 150.61822 8385 ft 286 kts 93°
2026-05-01 09:38 -34.23888 150.64204 8284 ft 285 kts 93°
2026-05-01 09:39 -34.24184 150.68982 8083 ft 284 kts 92°
2026-05-01 09:39 -34.24332 150.71355 8010 ft 283 kts 92°
2026-05-01 09:39 -34.24480 150.73720 8000 ft 283 kts 92°
2026-05-01 09:40 -34.24628 150.76115 7694 ft 285 kts 92°
2026-05-01 09:40 -34.24903 150.80817 6943 ft 279 kts 92°
2026-05-01 09:40 -34.25040 150.83133 6570 ft 278 kts 92°
2026-05-01 09:41 -34.25180 150.85461 6445 ft 275 kts 92°
2026-05-01 09:41 -34.25467 150.90137 5954 ft 280 kts 92°
2026-05-01 09:41 -34.25603 150.92307 5294 ft 276 kts 92°
2026-05-01 09:42 -34.25711 150.94006 4754 ft 272 kts 92°
2026-05-01 09:42 -34.25859 150.96283 4021 ft 268 kts 92°
2026-05-01 09:42 -34.26148 151.00679 3341 ft 263 kts 92°
2026-05-01 09:43 -34.26436 151.05060 2975 ft 261 kts 92°
2026-05-01 09:43 -34.26583 151.07277 2996 ft 263 kts 92°
2026-05-01 09:43 -34.26729 151.09494 2995 ft 263 kts 92°
2026-05-01 09:44 -34.27023 151.13924 2994 ft 263 kts 93°
2026-05-01 09:44 -34.27169 151.16124 2995 ft 263 kts 93°
2026-05-01 09:44 -34.27319 151.18364 2995 ft 263 kts 93°
2026-05-01 09:45 -34.27445 151.20577 2994 ft 262 kts 88°
2026-05-01 09:45 -34.25903 151.24373 2995 ft 257 kts 34°
2026-05-01 09:45 -34.24321 151.25334 3005 ft 257 kts 22°
2026-05-01 09:46 -34.22696 151.26155 2998 ft 251 kts 23°
2026-05-01 09:46 -34.21094 151.26898 3259 ft 246 kts 14°
2026-05-01 09:46 -34.19420 151.27101 3865 ft 246 kts 359°
2026-05-01 09:46 -34.17689 151.26845 4145 ft 257 kts 351°
2026-05-01 09:47 -34.15974 151.26327 4059 ft 241 kts 344°
2026-05-01 09:47 -34.14394 151.25630 3599 ft 238 kts 339°
2026-05-01 09:47 -34.12992 151.24911 3306 ft 202 kts 340°
2026-05-01 09:47 -34.11720 151.24292 2934 ft 202 kts 340°
2026-05-01 09:48 -34.10412 151.23700 2496 ft 198 kts 341°
2026-05-01 09:48 -34.09124 151.23096 2218 ft 197 kts 340°
2026-05-01 09:48 -34.07858 151.22511 2024 ft 193 kts 340°
2026-05-01 09:48 -34.06637 151.21913 1765 ft 194 kts 336°
2026-05-01 09:49 -34.05428 151.21213 1566 ft 191 kts 337°
2026-05-01 09:49 -34.04208 151.20604 1365 ft 189 kts 341°
2026-05-01 09:49 -34.03062 151.20122 1195 ft 159 kts 344°
2026-05-01 09:49 -34.02109 151.19766 918 ft 140 kts 345°
2026-05-01 09:50 -34.01268 151.19467 699 ft 119 kts 347°
2026-05-01 09:50 -34.00497 151.19244 407 ft 108 kts 351°
2026-05-01 09:50 -33.99643 151.19043 621 ft 121 kts 351°
2026-05-01 09:50 -33.98838 151.18872 340 ft 116 kts 351°
2026-05-01 09:51 -33.98104 151.18701 162 ft 103 kts 349°
2026-05-01 09:52 -34.00425 151.19090 1025 ft 148 kts 348°
2026-05-01 09:52 -33.99515 151.18814 755 ft 131 kts 348°
2026-05-01 09:52 -33.98654 151.18616 378 ft 121 kts 354°
2026-05-01 09:52 -33.97883 151.18480 150 ft 107 kts 351°